World > North America > United States > Mississippi

Rhodes, Mississippi Regional Weather

Lat: 31.43N, Lon: 88.97W
Wx Zone: MSZ075Web Search
Rhodes Weather Warning NWS WEATHER ALERT FOR THE RHODES, MS AREA - Issued: 1130 PM CDT Wed Apr 14 2021 Rhodes Weather Warning  

Pass this page to a friend. Tell them to point their camera at the QR Code near the bottom of this page.

Feedback


°F Click to change Rhodes hourly weather to Imperial units.Click to change Rhodes hourly weather to Metric units. °C
Rhodes Weather Map
UTC Time: 4/15/2021, 13:35
Your Time:

Rhodes, MS Regional Weather

Expires:202104151400;;590369
ASUS44 KJAN 151310
RWRMS 

MISSISSIPPI HOURLY WEATHER ROUNDUP
NATIONAL WEATHER SERVICE JACKSON MS
800 AM CDT THU APR 15 2021

NOTE: "FAIR: INDICATES FEW OR NO CLOUDS BELOW 12,000 FEET WITH NO
SIGNIFICANT WEATHER AND/OR OBSTRUCTIONS TO VISIBILITY.


MSZ059>079-151400-
SOUTH MISSISSIPPI
  
CITY           SKY/WX    TMP DP  RH WIND       PRES   REMARKS
BROOKHAVEN     CLOUDY    59  59 100 NE6       29.99S                  
HATTIESBURG    CLOUDY    62  59  90 N6        29.97R                  
LAUREL         CLOUDY    61  58  91 N8G18     29.96F                  
MCCOMB         LGT RAIN  61  59  93 N10       29.96R                  
NATCHEZ        CLOUDY    59  57  93 NE10      29.99R                  
PINE BELT      CLOUDY    61  61 100 N10       29.98R                  
$$


SKY/WX - Weather  TMP - Temperature  DP - Dew Point  RH - Relative Humidity
WIND - Wind Direction/Speed PRES - Barometric Pressure VSB - Visibility
WCI - Wind Chill Index E13G22 Wind - East Wind 13 mph/Gusts of 22 mph